Home   Weather   Mönchengladbach   Past weeks

Flag for Germany Past Weather in Mönchengladbach, North Rhine-Westphalia, Germany — Yesterday and Last 2 Weeks

Now
41 °F

Partly sunny.


Feels Like: 38 °F
Forecast: 35 / 51 °F
Wind: 5 mph from West

Location: Duesseldorf

Current Time: Apr 26, 2017 at 10:31:34 am

Latest Report: Apr 26, 2017 at 9:50 am


Visibility: N/A

Pressure: 29.89 "Hg

Humidity: 76%

Dew Point: 34 °F

Location of MönchengladbachLocation

Past Weather in Mönchengladbach — Graph

°F

Mönchengladbach Temperature Yesterday

Maximum temperature yesterday: 52 °F (at 12:20 am)
Minimum temperature yesterday: 39 °F (at 11:50 pm)
Average temperature yesterday: 46 °F

High & Low Weather Summary for the Past Weeks

 TemperatureHumidityPressure
High59 °F (Apr 21, 3:20 pm)100% (Apr 14, 5:50 am)30.63 "Hg (Apr 14, 5:50 am)
Low27 °F (Apr 20, 4:50 am)30% (Apr 20, 5:20 pm)29.71 "Hg (Apr 25, 12:50 am)
Average46 °F68%30.16 "Hg
* Reported Apr 11 9:20 am — Apr 26 9:20 am, Mönchengladbach, Weather by CustomWeather, © 2017

Note: Actual official high and low records may vary slightly from our data, if they occured in-between our weather recording intervals... More about our weather records

Advertising

Mönchengladbach Weather History for the Previous 24 Hours

Scroll right to see more
 ConditionsComfort  
Time TempWeatherWind HumidityBarometerVisibility
9:20 am
Wed, Apr 26
39 °FPartly sunny.6 mph81%29.89 "HgN/A
8:50 am39 °FBroken clouds.7 mph75%29.89 "HgN/A
8:20 am39 °FBroken clouds.8 mph75%29.86 "HgN/A
7:50 am37 °FScattered clouds.9 mph81%29.86 "HgN/A
7:20 am36 °FPartly sunny.8 mph81%29.86 "HgN/A
6:50 am36 °FPartly sunny.8 mph81%29.86 "HgN/A
6:20 am34 °FPartly sunny.6 mph87%29.86 "HgN/A
5:50 am32 °FPassing clouds.3 mph87%29.86 "HgN/A
5:20 am30 °FClear.2 mph100%29.86 "Hg10 mi
4:50 am32 °FClear.1 mph93%29.86 "Hg10 mi
4:20 am32 °FClear.1 mph93%29.86 "Hg10 mi
3:50 am32 °FClear.2 mph93%29.86 "Hg10 mi
3:20 am32 °FClear.5 mph93%29.86 "Hg10 mi
2:50 am34 °FClear.2 mph87%29.86 "Hg10 mi
2:20 am34 °FClear.1 mph93%29.86 "Hg10 mi
1:50 am36 °FClear.5 mph87%29.86 "Hg10 mi
1:20 am36 °FClear.5 mph87%29.86 "Hg10 mi
12:50 am37 °FClear.5 mph81%29.86 "Hg10 mi
12:20 am39 °FClear.2 mph75%29.86 "Hg10 mi
11:50 pm
Tue, Apr 25
39 °FClear.6 mph75%29.83 "Hg10 mi
11:20 pm41 °FPassing clouds.5 mph70%29.86 "HgN/A
10:50 pm41 °FPassing clouds.5 mph70%29.86 "HgN/A
10:20 pm43 °FPassing clouds.8 mph66%29.86 "HgN/A
9:50 pm43 °FPassing clouds.10 mph61%29.86 "HgN/A
9:20 pm45 °FClear.7 mph53%29.83 "Hg10 mi
8:50 pm45 °FClear.12 mph49%29.83 "Hg10 mi
8:20 pm46 °FSunny.9 mph43%29.83 "Hg10 mi
7:50 pm48 °FBroken clouds.12 mph37%29.83 "HgN/A
7:20 pm48 °FBroken clouds.8 mph43%29.83 "HgN/A
6:50 pm48 °FBroken clouds.12 mph43%29.83 "HgN/A
6:20 pm48 °FBroken clouds.12 mph43%29.83 "HgN/A
5:50 pm48 °FBroken clouds.8 mph50%29.80 "HgN/A
5:20 pm46 °FScattered showers. Broken clouds.10 mph57%29.80 "HgN/A
4:50 pm48 °FBroken clouds.8 mph54%29.80 "HgN/A
4:20 pm48 °FBroken clouds.13 mph50%29.80 "HgN/A
3:50 pm48 °FBroken clouds.9 mph54%29.80 "HgN/A
3:20 pm48 °FPartly sunny.12 mph54%29.80 "HgN/A
2:50 pm46 °FScattered showers. Partly sunny.15 mph53%29.80 "HgN/A
2:20 pm48 °FScattered showers. Partly sunny.14 mph62%29.80 "HgN/A
1:50 pm46 °FPartly sunny.10 mph66%29.80 "HgN/A
1:20 pm41 °FSprinkles. Partly sunny.18 mph81%29.80 "HgN/A
12:50 pm50 °FPartly sunny.16 mph54%29.77 "HgN/A
12:20 pm46 °FPartly sunny.17 mph53%29.77 "HgN/A
11:50 am46 °FPartly sunny.18 mph53%29.77 "HgN/A
11:20 am46 °FScattered clouds.17 mph53%29.77 "HgN/A
10:50 am46 °FScattered clouds.20 mph50%29.77 "HgN/A
10:20 am45 °FScattered clouds.20 mph57%29.77 "HgN/A
Weather by CustomWeather, © 2017

See weather overviewHow to use our weather pages